Bangkok, Thaïlande

19:14 ICT le 26 février 2017 (GMT +0700)
Bangkok International

Météorologie Historique pour VTBD - janvier, 2017

Change the Weather History Date:

mercredi, janvier 11, 2017

  Actual Average Record
Temperature  
Température moyenne 81 ° F -  
Température maximum 87 ° F 89 ° F 93 ° F (2000)
Température minimum 75 ° F 73 ° F 59 ° F (2009)
Cooling Degree Days 16    
Growing Degree Days 31 (Base 50)    
Moisture  
Point de rosée 75 ° F    
Average Humidity 83    
Maximum Humidity 100    
Minimum Humidity 48    
Précipitation  
Précipitation 0.03 pouce 0.02 pouce - ()
Pression au niveau de la mer  
Pression au niveau de la mer 29.81 pouce    
Vent  
Vitesse du vent 5 mph ()    
Vitesse maximum du vent 13 mph    
Max Gust Speed -    
Visibilité 5.7 Miles terrestres    
Evénements Pluie    
Averages and records for this station are not official NWS values.
T = Trace of Precipitation, MM = Missing Value Source: Averaged Metar Reports

Daily Weather History Graph

Daily Weather History Graph

Search for Another Location

Airport or City:

Trip Planner

Search our weather history database for the weather conditions in past years. The results will help you decide how hot, cold, wet, or windy it might be!

Date:

Astronomie

Jan. 11, 2017 Lever Coucher
Temps réel 06:44 ICT 18:06 ICT
Crépuscule civil 06:21 ICT 18:29 ICT
Crépuscule nautique 05:55 ICT 18:55 ICT
Crépuscule astronomique 05:28 ICT 19:22 ICT
Lune 17:03 ICT (1/11) 05:12 ICT (1/11)
Durée de lumière visible 12h 08m
Longueur du jour
11h 22m
Lune gibbeuse croissante, 98% of the Moon is Illuminated
Jan 11
Lune gibbeuse croissante
Jan 12
Pleine lune
Jan 20
Dernier quartier
Jan 28
Nouveau
fév 4
Premier quartier

Hourly Weather History & Observations

Heure (ICT) Température indice de chaleur Point de rosée Humidité Pression Visibilité Wind Dir Vitesse du vent Vitesse des rafales Precip Evénements Conditions météo
12:00 AM 77.0 ° F - 75.2 ° F 94% 29.83 pouce 5.6 mi Est 6.9 mph - N/A   Nuages épars
12:30 AM 77.0 ° F - 75.2 ° F 94% 29.83 pouce 5.6 mi ESE 6.9 mph - N/A   Nuages épars
1:00 AM 76 ° F - 75 ° F 94% 29.83 pouce 6 mi ESE 4.6 mph - -   Brume
1:00 AM 77.0 ° F - 75.2 ° F 94% 29.83 pouce 5.6 mi ESE 4.6 mph - N/A   Nuages épars
1:30 AM 77.0 ° F - 75.2 ° F 94% 29.83 pouce 5.6 mi Est 5.8 mph - N/A   Nuages épars
2:00 AM 75.2 ° F - 75.2 ° F 100% 29.80 pouce 5.6 mi SE 3.5 mph - N/A   Nuages épars
2:30 AM 75.2 ° F - 75.2 ° F 100% 29.80 pouce 5.6 mi Calme Calme - N/A   Nuages épars
3:00 AM 75.2 ° F - 75.2 ° F 100% 29.80 pouce 5.6 mi ESE 3.5 mph - N/A   Nuages épars
3:30 AM 75.2 ° F - 75.2 ° F 100% 29.80 pouce 5.6 mi ESE 4.6 mph - N/A   Nuages épars
4:00 AM 76 ° F - 75 ° F 97% 29.78 pouce 5 mi ESE 3.5 mph - -   Brume
4:00 AM 75.2 ° F - 75.2 ° F 100% 29.77 pouce 5.6 mi ESE 3.5 mph - N/A   Nuages épars
4:30 AM 75.2 ° F - 75.2 ° F 100% 29.77 pouce 5.6 mi ESE 2.3 mph - N/A   Nuages épars
5:00 AM 75.2 ° F - 75.2 ° F 100% 29.77 pouce 5.0 mi ESE 2.3 mph - N/A   Nuages épars
5:30 AM 75.2 ° F - 75.2 ° F 100% 29.77 pouce 5.0 mi Est 2.3 mph - N/A   Partiellement nuageux
6:00 AM 75.2 ° F - 75.2 ° F 100% 29.80 pouce 5.0 mi Est 4.6 mph - N/A   Partiellement nuageux
6:30 AM 75.2 ° F - 75.2 ° F 100% 29.80 pouce 4.3 mi Calme Calme - N/A   Nuages épars
7:00 AM 76 ° F - 75 ° F 97% 29.82 pouce 4 mi Est 3.5 mph - -   Brume
7:00 AM 75.2 ° F - 75.2 ° F 100% 29.80 pouce 3.7 mi Est 3.5 mph - N/A   Nuages épars
7:30 AM 77.0 ° F - 75.2 ° F 94% 29.83 pouce 3.7 mi ENE 4.6 mph - N/A   Nuages épars
8:00 AM 77.0 ° F - 75.2 ° F 94% 29.83 pouce 4.3 mi Est 5.8 mph - N/A   Nuages épars
8:30 AM 78.8 ° F - 75.2 ° F 89% 29.86 pouce 5.0 mi ESE 5.8 mph - N/A   Partiellement nuageux
9:00 AM 78.8 ° F - 77.0 ° F 94% 29.86 pouce 5.0 mi Est 6.9 mph - N/A   Partiellement nuageux
9:30 AM 80.6 ° F 87.1 ° F 77.0 ° F 89% 29.89 pouce 5.0 mi Est 4.6 mph - N/A   Nuages épars
10:00 AM 80 ° F - 77 ° F 86% 29.87 pouce 5 mi Est 5.8 mph - -   Brume
10:00 AM 80.6 ° F 87.1 ° F 77.0 ° F 89% 29.86 pouce 5.0 mi Est 5.8 mph - N/A   Nuages épars
10:30 AM 80.6 ° F 87.1 ° F 77.0 ° F 89% 29.86 pouce 4.3 mi ESE 5.8 mph - N/A Pluie Pluie fine
11:00 AM 80.6 ° F 87.1 ° F 77.0 ° F 89% 29.86 pouce 6.2 mi SE 3.5 mph - N/A   Nuages épars
11:30 AM 84.2 ° F 94.1 ° F 77.0 ° F 79% 29.86 pouce 6.2 mi Sud 8.1 mph - N/A   Nuages épars
12:00 PM 84.2 ° F 92.3 ° F 75.2 ° F 74% 29.83 pouce 6.2 mi Sud 8.1 mph - N/A   Nuageux
12:30 PM 84.2 ° F 90.9 ° F 73.4 ° F 70% 29.83 pouce 6.2 mi SSE 9.2 mph - N/A   Nuages épars
1:00 PM 87 ° F - 73 ° F 56% 29.81 pouce 6 mi SSE 9.2 mph - -   Partiellement nuageux
1:00 PM 87.8 ° F 95.6 ° F 73.4 ° F 62% 29.80 pouce 6.2 mi SSE 9.2 mph - N/A   Nuages épars
1:30 PM 86.0 ° F 95.1 ° F 75.2 ° F 70% 29.80 pouce 6.2 mi Sud 8.1 mph - N/A   Nuages épars
2:00 PM 86.0 ° F 91.8 ° F 71.6 ° F 62% 29.77 pouce 6.2 mi SSO 10.4 mph - N/A   Nuages épars
2:30 PM 86.0 ° F 93.4 ° F 73.4 ° F 66% 29.77 pouce 6.2 mi Sud 10.4 mph - N/A   Nuages épars
3:00 PM 86.0 ° F 95.1 ° F 75.2 ° F 70% 29.77 pouce 6.2 mi Sud 9.2 mph - N/A   Partiellement nuageux
3:30 PM 87.8 ° F 93.8 ° F 71.6 ° F 58% 29.74 pouce 6.2 mi SSE 11.5 mph - N/A   Partiellement nuageux
4:00 PM 88 ° F - 71 ° F 48% 29.75 pouce 6 mi SSE 12.7 mph - -   Nuages épars
4:00 PM 87.8 ° F 93.8 ° F 71.6 ° F 58% 29.74 pouce 6.2 mi SSE 12.7 mph - N/A   Partiellement nuageux
4:30 PM 86.0 ° F 91.8 ° F 71.6 ° F 62% 29.74 pouce 6.2 mi SSE 11.5 mph - N/A   Partiellement nuageux
5:00 PM 86.0 ° F 91.8 ° F 71.6 ° F 62% 29.74 pouce 6.2 mi SSE 9.2 mph - N/A   Partiellement nuageux
5:30 PM 84.2 ° F 89.6 ° F 71.6 ° F 66% 29.74 pouce 6.2 mi SSE 10.4 mph - N/A   Partiellement nuageux
6:00 PM 84.2 ° F 89.6 ° F 71.6 ° F 66% 29.77 pouce 6.2 mi SSE 9.2 mph - N/A   Partiellement nuageux
6:30 PM 82.4 ° F 88.2 ° F 73.4 ° F 74% 29.77 pouce 6.2 mi SSE 8.1 mph - N/A   Partiellement nuageux
7:00 PM 81 ° F - 73 ° F 71% 29.79 pouce 6 mi SSE 6.9 mph - -   Nuages épars
7:00 PM 80.6 ° F 85.4 ° F 73.4 ° F 79% 29.77 pouce 6.2 mi SSE 6.9 mph - N/A   Partiellement nuageux
7:30 PM 80.6 ° F 85.4 ° F 73.4 ° F 79% 29.80 pouce 6.2 mi Sud 4.6 mph - N/A   Partiellement nuageux
8:00 PM 80.6 ° F 85.4 ° F 73.4 ° F 79% 29.80 pouce 6.2 mi Sud 5.8 mph - N/A   Partiellement nuageux
8:30 PM 80.6 ° F 86.2 ° F 75.2 ° F 84% 29.83 pouce 6.2 mi SSE 8.1 mph - N/A   Partiellement nuageux
9:00 PM 80.6 ° F 85.4 ° F 73.4 ° F 79% 29.83 pouce 6.2 mi SSE 6.9 mph - N/A   Partiellement nuageux
9:30 PM 80.6 ° F 85.4 ° F 73.4 ° F 79% 29.83 pouce 6.2 mi SSE 6.9 mph - N/A   Partiellement nuageux
10:00 PM 79 ° F - 74 ° F 81% 29.83 pouce 6 mi SSE 5.8 mph - -   Nuages épars
10:00 PM 78.8 ° F - 75.2 ° F 89% 29.83 pouce 6.2 mi SSE 5.8 mph - N/A   Partiellement nuageux
10:30 PM 78.8 ° F - 75.2 ° F 89% 29.83 pouce 6.2 mi SSE 5.8 mph - N/A   Partiellement nuageux
11:00 PM 78.8 ° F - 75.2 ° F 89% 29.83 pouce 6.2 mi SSE 5.8 mph - N/A   Partiellement nuageux
11:30 PM 78.8 ° F - 75.2 ° F 89% 29.83 pouce 6.2 mi SE 4.6 mph - N/A   Partiellement nuageux